ALSAT 1 1 27559U 02054A 10072.04875021 .00000126 00000-0 29388-4 0 2644 2 27559 97.9049 303.8686 0022633 216.7603 143.2061 14.69373079389201 NIGERIASAT 1 1 27941U 03042C 10072.13100791 .00000039 00000-0 16400-4 0 3276 2 27941 97.9084 301.3281 0011845 14.9908 345.1644 14.63064141344862 UK-DMC 1 27942U 03042D 10072.09576600 .00000045 00000-0 17612-4 0 3192 2 27942 97.9067 301.0115 0011581 22.8836 337.2885 14.63060008344858 BILSAT 1 1 27943U 03042E 10072.09853356 -.00000014 00000-0 60740-5 0 1791 2 27943 97.9054 300.6791 0011901 12.9659 347.1850 14.62939171344845 BEIJING 1 1 28890U 05043A 10072.13463872 .00000033 00000-0 16358-4 0 571 2 28890 98.0202 319.5136 0014735 219.5201 140.4941 14.60087779233154 HJ-1A 1 33320U 08041A 10072.13836913 .00000333 00000-0 56691-4 0 6759 2 33320 97.9520 148.6971 0023706 298.3691 61.5137 14.75234595 81543 HJ-1B 1 33321U 08041B 10072.10269925 .00000034 00000-0 12683-4 0 7145 2 33321 97.9537 148.7018 0042225 310.5202 49.2341 14.75243476 81523 YAOGAN 4 1 33446U 08061A 10072.09818374 -.00000407 00000-0 -52384-4 0 4304 2 33446 97.8773 151.6834 0012668 238.8480 121.1500 14.75504992 68850 YAOGAN 5 1 33456U 08064A 10072.15969359 .00001712 00000-0 71068-4 0 4189 2 33456 97.3443 147.7805 0005793 131.7292 283.9894 15.25170843 69042 DEIMOS-1 1 35681U 09041A 10072.05506667 .00002508 00000-0 43278-3 0 6991 2 35681 98.1093 330.6666 0001299 115.0768 245.0587 14.69348430 33261 UK-DMC 2 1 35683U 09041C 10072.03928262 .00000016 00000-0 11667-4 0 7069 2 35683 98.1124 329.9175 0006555 355.5688 4.5462 14.66452415 33217